This is the latest recevied weather packets stored in our database for station/object W8KHW. If no packets are shown the sender has not sent any weather packets the latest 10 day(s).
| Time | Temp. | Humidity | Pressure | Rain* | Wind** | Luminosity | Snow |
|---|---|---|---|---|---|---|---|
| 1778050020 | 8.33° C | 99% | 1007.5 hPa | 2.54 mm | - | - | - |
| 1778049520 | 8.33° C | 99% | 1007.5 hPa | 2.29 mm | - | - | - |
| 1778049020 | 8.89° C | 99% | 1007.7 hPa | 2.29 mm | - | - | - |
| 1778048519 | 8.89° C | 99% | 1007.9 hPa | 1.78 mm | - | - | - |
| 1778048019 | 8.89° C | 99% | 1007.9 hPa | 1.78 mm | - | - | - |
| 1778047519 | 8.89° C | 99% | 1008.1 hPa | 1.78 mm | - | - | - |
| 1778047019 | 9.44° C | 99% | 1008 hPa | 1.52 mm | - | - | - |
| 1778046519 | 9.44° C | 99% | 1007.8 hPa | 1.27 mm | - | - | - |
| 1778046019 | 8.89° C | 99% | 1007.7 hPa | 1.02 mm | - | - | - |
| 1778045519 | 9.44° C | 99% | 1007.7 hPa | 1.02 mm | - | - | - |
| 1778045018 | 9.44° C | 99% | 1007.8 hPa | 0.76 mm | - | - | - |
| 1778044518 | 9.44° C | 99% | 1007.8 hPa | 0.51 mm | - | - | - |
| 1778044018 | 9.44° C | 99% | 1007.8 hPa | 0.25 mm | - | - | - |
| 1778043518 | 9.44° C | 99% | 1008 hPa | 0 mm | - | - | - |
| 1778043018 | 9.44° C | 99% | 1007.9 hPa | 0 mm | - | - | - |
| 1778042517 | 9.44° C | 99% | 1008.2 hPa | 0 mm | - | - | - |
| 1778042017 | 9.44° C | 99% | 1008.1 hPa | 0.25 mm | - | - | - |
| 1778041517 | 10° C | 99% | 1007.9 hPa | 0.51 mm | - | - | - |
| 1778041017 | 10° C | 99% | 1008 hPa | 0.76 mm | - | - | - |
| 1778040516 | 10° C | 99% | 1008.1 hPa | 1.52 mm | - | - | - |
| 1778040016 | 10° C | 99% | 1008.4 hPa | 2.03 mm | - | - | - |
| 1778039516 | 10° C | 99% | 1008.3 hPa | 2.79 mm | - | - | - |
| 1778039016 | 10° C | 99% | 1008.4 hPa | 2.79 mm | - | - | - |
| 1778038516 | 10° C | 99% | 1008.5 hPa | 2.79 mm | - | - | - |
| 1778038016 | 10° C | 99% | 1008.5 hPa | 2.79 mm | - | - | - |
* Rain latest hour (hover to see other rain measurements)
** Current wind speed in m/s (hover to see current wind gust speed)